星链-2501 (STARLINK-2501 )

导读

STARLINK-2501是美国太空探索技术公司(SpaceX)于2021年4月29日发射的星链(Starlink)低轨互联网卫星,属于星链星座组网的一员,运行在近地轨道。 星链星座旨在为全球偏远、基础设施不足的区域提供高速宽带互联网服务,单颗星链卫星可支持数十兆比特通信速率,配合星间激光链路,可实现全球无缝覆盖,为偏远地区通信、移动互联提供连接支撑,是全球低轨卫星互联网部署的典型组成单元。

Basic Information
目录编号:
48330
目录名称:
STARLINK-2501
国际标识:
2021-036BG
轨道中心:
EARTH
卫星名称:
星链-2501
卫星全名:
星链-2501 (STARLINK-2501 )
卫星状态:
在轨 (已飞行1954 天)
发射日期:
2021-04-29 UTC
国别 :
美国 (US)
星等 :
--
Orbit Information
数据来源 国际轨道数据 AOE轨道数据
星历时间 2026-09-04T02:19:47+0800
14小时前
查看轨道信息
2026-08-29T07:00:00+0800
6天前
查看轨道信息
半长轴 6848.824km 6848.88km
偏心率 0.0001201 0.0000945
轨道倾角 53.160° 53.158°
近地点辐角 59.874° 60.949°
升交点赤经 352.782° 19.807°
平近点角 300.238° 309.523°
近地点 469.864km 470.095km
远地点 471.51km 471.391km
周期 94.012分钟 94.013分钟
每日圈数 15.317181 15.316991
Detailed Information
固有亮度:
5
最大亮度:
2.5
卫星平台:
Starlink V1.0
覆盖范围:
全球
运营商:
太空探索技术公司
运营商所在国:
美国
制造商(研发单位):
太空探索技术公司
制造商所在国:
美国
使用方式:
暂无
Satellite Introduction
星链(Starlink)计划是由太空探索技术公司(SpaceX)提出的一个巨型低轨卫星互联网星座项目,计划在2019年至2024年间在太空搭建由约1.2万颗卫星组成的“星链”网络,其中1584颗将部署在地球上空550千米处的近地轨道,并从2020年开始工作。该卫星仍在工作。
2D Orbit Map
3D Orbit Map
Orbit Altitude Analysis Chart
Orbit Inclination Analysis Chart
Orbit Comprehensive Analysis Chart
View Comprehensive Chart
Conjunction Data List
Event ID Objects TCA Miss Dist (km) Collision Risk Probability Collision Risk Index (CRI) Action
CDM_260902-041204-833006-487923
OBJECT D (64879)
2026-09-02T
04:12:02+0000
0.344 km
远距离
4.092917E-4 高风险 0.87
CDM_260906-085604-833006-441521
2026-09-06T
08:56:17+0000
0.984 km
远距离
7.957788E-6 低风险 0.53
CDM_260905-092104-833006-388321
2026-09-05T
09:21:58+0000
1.406 km
极远距离
7.665436E-6 低风险 0.53
CDM_260904-221204-833006-868621
2026-09-04T
22:12:59+0000
1.814 km
极远距离
3.530708E-6 低风险 0.46
CDM_260905-061304-833006-388321
2026-09-05T
06:13:59+0000
2.292 km
极远距离
1.934038E-6 低风险 0.41
CDM_260906-022504-833006-517821
2026-09-06T
02:25:31+0000
2.627 km
极远距离
1.551972E-6 低风险 0.39
CDM_260906-175904-833006-913821
2026-09-06T
17:59:22+0000
2.729 km
极远距离
1.363032E-6 低风险 0.38
CDM_260904-233304-833006-812021
2026-09-04T
23:33:54+0000
2.961 km
极远距离
1.317124E-6 低风险 0.37
CDM_260905-213904-833006-798521
2026-09-05T
21:39:17+0000
2.663 km
极远距离
1.311687E-6 低风险 0.37
CDM_260905-231304-833006-484921
2026-09-05T
23:13:44+0000
2.889 km
极远距离
1.299172E-6 低风险 0.37